Location: ??????
(30.5519°N, 47.7720°E)
Time: 17:44:47
(UTC+00:00)

Cosmos 1553 Rocket - Pass Details

Date: 24 January 2021
Orbit: 941 x 1008 km, 82.9° (Epoch: 01 March)

Event Time Altitude Azimuth Distance (km) Brightness Sun altitude
Rises 15:58:39 0° 358° (N) 3,735 7.0 -21.6°
Reaches altitude 10° 16:01:14 10° 1° (N) 2,777 6.3 -22.1°
Maximum altitude 16:07:35 66° 83° (E) 1,079 3.9 -23.5°
Drops below altitude 10° 16:13:47 10° 165° (SSE) 2,725 6.3 -24.8°
Sets 16:16:18 0° 168° (SSE) 3,659 7.0 -25.3°
